Regional Weather Roundup
Issued by NWS

Home | Current Version | Previous Version | Text Only | Print | Product List | Glossary On
Versions: 1 2 3 4 5 6 7 8 9 10 11 12 13 14 15 16 17 18 19 20 21 22 23 24 25 26 27
000
ASUS42 KTBW 212116
RWRFL
FLORIDA REGIONAL WEATHER ROUNDUP
NATIONAL WEATHER SERVICE TAMPA BAY RUSKIN FL
400 PM EST SAT JAN 21 2017

NOTE: "FAIR" INDICATES FEW OR NO CLOUDS BELOW 12,000 FEET WITH NO
SIGNIFICANT WEATHER AND/OR OBSTRUCTIONS TO VISIBILITY.

FLZ001>010-012>015-112-114-115-212200-
PANHANDLE FLORIDA

CITY           SKY/WX    TMP DP  RH WIND       PRES   REMARKS
PENSACOLA      CLOUDY    67  61  81 E7        29.66F
PENSACOLA NAS  CLOUDY    67  61  81 E8        29.66F
MILTON NAS     LGT RAIN  68  62  81 SE9       29.66
CRESTVIEW      CLOUDY    67  61  81 SE3       29.70R
DUKE FIELD     CLOUDY    66  62  85 SE7       29.68S
VALPARAISO     LGT RAIN  64  63  94 E3        29.69S
MARY ESTHER    CLOUDY    66  56  71 E6        29.67S
TRI COUNTY     PTSUNNY   64  63  96 SE8       29.72R
PANAMA CITY    FAIR      65  63  93 NE3       29.68F
TYNDALL AFB    CLOUDY    66  63  88 W5        29.70F
APALACHICOLA   CLOUDY    74  71  91 SW13      29.72S

STATION/POSITION SKY/WX   TEMP    WIND        PRES    WAVE   SWELL
                          AIR SEA DIR/SP/G            HT/PER HT/PER
                          (F)     (DEG/KT/KT) (MB)    (FT/S) (FT/S)
30.1N   87.6W              66 66   80/  8/  8 1004.2F   5/ 7   5/ 7
28.8N   86.0W              77 75              1005.7F   9/ 8
PANAMA CITY BEAC           68 68  230/ 16/ 22 1005.6F
TOWER C                    73     210/ 23/ 24 1006.5F
28.5N   84.5W              76 73  200/ 21/ 25 1007.0F   7/ 6

$$
FLZ011-016>038-118-127-128-134-139-239-212200-
NORTH FLORIDA

CITY           SKY/WX    TMP DP  RH WIND       PRES   REMARKS
MARIANNA       CLOUDY    62  62 100 S5        29.70F
TALLAHASSEE    TSTM      64  61  90 W28G44    29.78S VSB 3/4
PERRY          CLOUDY    74  69  82 S13G18    29.77S
CROSS CITY     CLOUDY    75  66  73 S17G25    29.78R
LAKE CITY      CLOUDY    77  59  53 SW17G26   29.78R
GAINESVILLE    PTSUNNY   89  60  37 SW21G30   29.77R
WILLISTON      SUNNY     82  63  51 S12G23    29.78S
PALATKA        PTSUNNY   82  59  44 SW9G22    29.77S
MAYPORT NAS    PTSUNNY   82  58  43 SW18G25   29.74F
JACKSONVILLE   PTSUNNY   81  59  47 SW13      29.74S
JAX NAS        PTSUNNY   82  59  45 S15G23    29.75F
FERNANDINA BEA CLOUDY    82  61  47 SW10      29.74R
ST AUGUSTINE   PTSUNNY   82  60  47 S12G20    29.76F

STATION/POSITION SKY/WX   TEMP    WIND        PRES    WAVE   SWELL
                          AIR SEA DIR/SP/G            HT/PER HT/PER
                          (F)     (DEG/KT/KT) (MB)    (FT/S) (FT/S)
SHELL POINT      NOT AVBL
KEATON BEACH               68     180/ 17/ 18 1008.0R
CEDAR KEY                  70     190/ 19/ 23 1009.0F
FERNANDINA                 79 65  180/  5/  8 1007.9R
30.7N   81.3W                 64                N/A     2/13   2/13
MAYPORT                    79 65  220/  9/ 21 1007.5F
31.4N   80.9W              65 62  160/ 16/ 17 1006.7F   3/14   2/14
ST AUGUSTINE               80 65  200/ 14/ 18 1008.2F

$$
FLZ040-043>046-052-053-057-058-063-144-212200-
INTERIOR CENTRAL FLORIDA

CITY           SKY/WX    TMP DP  RH WIND       PRES   REMARKS
OCALA          MOSUNNY   82  59  44 SW20G26   29.78F
THE VILLAGES     N/A     82  70  65 SE13G18   29.69S
LEESBURG       MOSUNNY   82  59  45 SW9       29.80S
SANFORD        MOSUNNY   83  57  41 SW13G20   29.80S
ORLANDO EXEC   MOSUNNY   82  59  45 SW13      29.80F
ORLANDO INTL   MOSUNNY   82  58  43 S17G23    29.80F
KISSIMMEE      MOSUNNY   83  61  47 SW15G21   29.82F
WINTER HAVEN   MOSUNNY   82  57  42 S14       29.82F
LAKELAND       MOSUNNY   82  59  44 SW21G28   29.81F
BARTOW         SUNNY     81  57  44 SW20      29.82F
OKEECHOBEE     PTSUNNY   79  61  53 S8G16     29.84F

$$
FLZ041-047-054-059-064-141-147-212200-
EAST CENTRAL FLORIDA

CITY           SKY/WX    TMP DP  RH WIND       PRES   REMARKS
ORMOND BEACH   SUNNY     82  59  44 SW17      29.78
DAYTONA BEACH  MOSUNNY   81  59  47 SW14G21   29.78F
DELAND         SUNNY     82  59  44 S13G21    29.78F
NEW SMYRNA BEA SUNNY     81  57  44 SW17G23   29.80F
JFK SPACE CTR  SUNNY     81  58  44 SW12      29.79F
TITUSVILLE     MOSUNNY   81  54  39 S17G23    29.81F
CAPE CANAVERAL SUNNY     82  59  45 S9        29.79F
PATRICK AFB    SUNNY     83  58  43 SW15G23   29.81F
MELBOURNE      MOSUNNY   82  58  43 S17G23    29.81F
VERO BEACH     SUNNY     82  58  43 SW17G26   29.84F
FT PIERCE      SUNNY     83  59  44 SW10G22   29.83F
STUART         MOSUNNY   86  63  45 SW12G23   29.86F

STATION/POSITION SKY/WX   TEMP    WIND        PRES    WAVE   SWELL
                          AIR SEA DIR/SP/G            HT/PER HT/PER
                          (F)     (DEG/KT/KT) (MB)    (FT/S) (FT/S)
TRIDENT PIER     NOT AVBL
28.4N   80.5W                 71                N/A     2/11   2/11
27.5N   80.2W                 77                N/A     3/13   2/13

$$
FLZ050-056-061-142-242-148-248-149-249-151-251-155-255-
160-260-212200-
WEST CENTRAL FLORIDA

CITY           SKY/WX    TMP DP  RH WIND       PRES   REMARKS
CRYSTAL RIVER  FAIR      79  61  53 SW13G21   29.80R
INVERNESS      FAIR      81  61  50 S15G22    29.80S
BROOKSVILLE    SUNNY     80  59  48 S17G29    29.82F
CLEARWATER AIR FAIR      77  63  61 S17G24    29.82S
ST PETE CLEARW SUNNY     78  62  57 S23G30    29.81F
TAMPA INTL     MOSUNNY   76  66  71 S16G25    29.83S
TAMPA EXEC     SUNNY     82  61  47 SW10G17   29.82F
PLANT CITY     SUNNY     84  61  45 SW15G24   29.83S
MACDILL AFB    SUNNY     78  68  71 NW18      29.82F
PETER O KNIGHT CLOUDY    79  66  65 SW16      29.83S
ST PETERSBURG  SUNNY     75  66  73 SW18G26   29.81S
SARASOTA       SUNNY     76  66  71 S16       29.81F
VENICE         FAIR      75  68  78 S15G23    29.84F

STATION/POSITION SKY/WX   TEMP    WIND        PRES    WAVE   SWELL
                          AIR SEA DIR/SP/G            HT/PER HT/PER
                          (F)     (DEG/KT/KT) (MB)    (FT/S) (FT/S)
27.3N   84.2W                 78                N/A     5/ 6
CLEARWATER BEACH           74 69  180/ 22/ 27 1009.4F
MIDDLE TAMPA BAY           73     210/ 18/ 21 1009.8F
VENICE                     71 71  160/ 15/ 16 1010.4F

$$
FLZ066-069-070-075>078-162-262-165-265-212200-
SOUTHWEST FLORIDA AND KEYS

CITY           SKY/WX    TMP DP  RH WIND       PRES   REMARKS
PUNTA GORDA    SUNNY     81  61  50 S18       29.85F
FT MYERS       SUNNY     80  65  59 SW18G26   29.84F
SOUTHWEST INTL SUNNY     81  60  48 S18       29.84F
NAPLES         MOSUNNY   79  64  60 S16G24    29.86F
MARCO ISLAND   MOSUNNY   61  61 100 S15       29.88F
MARATHON       SUNNY     82  66  58 S7        29.89F
KEY WEST NAS   PTSUNNY   80  67  64 S10       29.88F
KEY WEST INTL  NOT AVBL

STATION/POSITION SKY/WX   TEMP    WIND        PRES    WAVE   SWELL
                          AIR SEA DIR/SP/G            HT/PER HT/PER
                          (F)     (DEG/KT/KT) (MB)    (FT/S) (FT/S)
NAPLES                        72              1011.4F
26.0N   85.6W              76 76  160/ 17/ 19 1007.5F   4/ 6
DRY TORTUGAS               77     150/  8/  9 1011.0F
SAND KEY                   76     180/ 11/ 13 1012.2F
LONG KEY                   76 76  230/  7/  9 1012.9F
MOLASSES REEF              77     210/ 14       N/A

$$
FLZ067-068-071>074-168-172>174-212200-
SOUTHEAST FLORIDA

CITY           SKY/WX    TMP DP  RH WIND       PRES   REMARKS
W PALM BEACH   PTSUNNY   79  65  62 S12       29.87F
BOCA RATON     PTSUNNY   81  64  57 S10       29.87F
FT LAUDER-EXEC MOSUNNY   82  62  50 S14       29.87F
FT LAUDERDALE  MOSUNNY   81  63  54 S17G24    29.87F
POMPANO BEACH  MOSUNNY   81  63  54 S16       29.87F
PEMBROKE PINES MOSUNNY   81  63  54 S15       29.89F
OPA LOCKA      MOSUNNY   81  63  54 S15       29.89S
MIAMI          MOSUNNY   82  64  54 SE10G23   29.89S
WEST KENDALL   MOSUNNY   81  62  52 S12       29.89S
HOMESTEAD      MOSUNNY   80  66  64 S12       29.89S

STATION/POSITION SKY/WX   TEMP    WIND        PRES    WAVE   SWELL
                          AIR SEA DIR/SP/G            HT/PER HT/PER
                          (F)     (DEG/KT/KT) (MB)    (FT/S) (FT/S)
PORT EVERGLADES            79     170/ 12/ 17 1012.1F
VIRGINIA KEY               77 81  200/ 14/ 19 1012.9S
LAKE WORTH                 77 77  180/ 19/ 23 1011.2F
FOWEY ROCKS                76 76  190/ 20/ 22 1013.0F

$$





USA.gov is the U.S. government's official web portal to all federal, state and local government web resources and services.